Location: Hermaringen
(48.5952°N, 10.2585°E)
Time: 21:52:35
(UTC+00:00)

SJ-12 - Pass Details

Date: 18 November 2025
Orbit: 517 x 528 km, 97.8° (Epoch: 05 December)

Event Time Altitude Azimuth Distance (km) Brightness Sun altitude
Rises 17:03:39 0° 174° (S) 2,641 7.4 -14.3°
Reaches altitude 10° 17:05:46 10° 178° (S) 1,756 6.5 -14.7°
Maximum altitude 17:09:31 60° 259° (WSW) 601 4.3 -15.3°
Drops below altitude 10° 17:13:17 10° 340° (NNW) 1,764 6.5 -15.9°
Sets 17:15:25 0° 344° (NNW) 2,656 7.4 -16.2°
